Regional Weather Roundup
Issued by NWS

Home | Current Version | Previous Version | Graphics & Text | Print | Product List | Glossary On
Versions: 1 2 3 4 5 6 7 8 9 10 11 12 13 14 15 16 17 18 19 20 21 22 23 24 25 26 27 28 29 30 31 32 33 34 35 36 37 38 39 40 41 42 43 44 45 46 47 48 49 50
000
ASUS43 KIND 052059
RWRIN

WEATHER ROUNDUP FOR INDIANA
NATIONAL WEATHER SERVICE INDIANAPOLIS IN
500 PM EDT TUE MAY 05 2015

NOTE: "FAIR" INDICATES FEW OR NO CLOUDS BELOW 12,000 FEET WITH NO
SIGNIFICANT WEATHER AND/OR OBSTRUCTIONS TO VISIBILITY.

* - STATION DOES NOT REPORT WEATHER SUCH AS PRECIPITATION OR FOG.

+ - STATION NOT QUALITY CONTROLLED BY THE NATIONAL WEATHER SERVICE.
    USE DATA WITH CAUTION...ESPECIALLY DEWPOINT AND RELATIVE
    HUMIDITY OBSERVATIONS.

INZ001>003-010>013-019-020-052200-
NORTHWEST INDIANA

CITY           SKY/WX    TMP DP  RH WIND       PRES   REMARKS
GARY /AIRPORT/ FOG       52 N/A N/A N6        30.20F VSB 3/4

$$

LMZ046-743>745-052200-
SOUTHERN LAKE MICHIGAN

STATION/POSITION TIME  TEMP    WIND        PRES    WAVE
                       AIR SEA DIR/SP/G            HT
                 (UTC) (F)     (DEG/KT/KT) (MB)    (FT)
BURNS HARBOR     2000   51      30/  5/  6 1023.0F
MICHIGAN CITY    2000   53      40/ 10/ 11   N/A
5NW MICH CITY    2000   51 50   50/ 10/ 12   N/A     2

$$

INZ004-005-014>016-021>024-052200-
NORTH CENTRAL INDIANA

CITY           SKY/WX    TMP DP  RH WIND       PRES   REMARKS
ELKHART        CLOUDY    57  55  94 NE10      30.22F FOG
GOSHEN         CLOUDY    63  60  90 NE14      30.19F FOG
SOUTH BEND     CLOUDY    61  57  87 NE8       30.20F

$$

INZ006>009-017-018-025>027-052200-
NORTHEAST INDIANA

CITY           SKY/WX    TMP DP  RH WIND       PRES   REMARKS
ANGOLA *+      CLOUDY    57  46  67 NE6       30.22F
FORT WAYNE     PTSUNNY   78  60  53 SW12      30.16F

$$

INZ028-029-035-036-043>045-051>053-052200-
WEST CENTRAL INDIANA

CITY           SKY/WX    TMP DP  RH WIND       PRES   REMARKS
CRAWFORDSVL +  MOSUNNY   81  40  23 SW12G20   30.15F
GREENCASTLE +  MOSUNNY   81  46  30 SW8       30.17F
LAFAYETTE      MOSUNNY   82  51  34 SW10      30.12F
TERRE HAUTE    MOSUNNY   81  52  36 SW9       30.15F

$$

INZ030>032-037>040-046>048-054>057-064-065-052200-
CENTRAL INDIANA

CITY           SKY/WX    TMP DP  RH WIND       PRES   REMARKS
GREENWOOD *+   MOSUNNY   84  50  30 S9        30.18F
INDIANAPOLIS   MOSUNNY   80  52  37 SW15      30.15F
-EAGLE CREEK   MOSUNNY   82  51  34 VRB7G18   30.15F
KOKOMO *+      SUNNY     82  55  39 SW15      30.15F
MT COMFORT *+  SUNNY     82  32  16 SW8G20    30.18F
SHELBYVILLE    PTSUNNY   85  54  34 W9        30.17F

$$

INZ033-034-041-042-049-050-058-059-052200-
EAST CENTRAL INDIANA

CITY           SKY/WX    TMP DP  RH WIND       PRES   REMARKS
MUNCIE         MOSUNNY   81  53  37 W6        30.17F

$$

INZ060-061-067>069-081>083-085>088-052200-
SOUTHWEST INDIANA

CITY           SKY/WX    TMP DP  RH WIND       PRES   REMARKS
EVANSVILLE     MOSUNNY   84  53  34 S8        30.17F
HUNTINGBURG *+ MOSUNNY   82  54  36 S9        30.18F

$$

INZ062-063-066-070>080-084-089>092-052200-
SOUTH CENTRAL AND SOUTHEAST INDIANA

CITY           SKY/WX    TMP DP  RH WIND       PRES   REMARKS
BLOOMINGTON    PTSUNNY   83  50  31 SW12      30.18F
MADISON *+     MOSUNNY   81  48  32 SW6       30.22F
SEYMOUR +      MOSUNNY   84  55  37 S12       30.18F

$$



USA.gov is the U.S. government's official web portal to all federal, state and local government web resources and services.